Welcome to the New NWS' Forecast!
Most changes are behind the scenes, but click here for differences you might notice.
Latest weather observations around

EW3298 Indio (E3298)

Using English Units (Switch to International System of Units)
Date/ Time (PDT) Wind (mph) Vis. (mi) Weather Sky Cond. Temp (°F) Rel. Humidity Wind Chill (°F) Heat Index (°F) Pressure Precip. (in)
Air Dwpt 6 hour Altimeter (inHg) Sea level (inHg) 1 hr 3 hr 6 hr
Max Min
Aug 20 01:15 W 3   Clear   93 63     37%   94 29.72        
Aug 20 01:00 Calm   Clear   94 64     37%   96 29.72        
Aug 20 00:45 Calm   Clear   94 63     36%   95 29.72        
Aug 20 00:30 Calm   Clear   94 63     36%   95 29.72        
Aug 19 22:45 W 5   Clear   96 62     33%   97 29.69        
Aug 19 22:15 NW 4   Clear   98 62     31%   99 29.69        
Aug 19 21:00 WNW 5   Clear   100 63     30%   102 29.68        
Aug 19 20:45 Calm   Clear   101 63     29%   103 29.68        
Aug 19 20:30 WNW 3   Clear   102 63     28%   104 29.67        
Aug 19 20:15 NW 6   Clear   103 62     27%   106 29.67        
Aug 19 19:30 Calm   Clear   106 63     25%   109 29.65        
Aug 19 18:45 Calm   Clear   108 62     23%   111 29.64        
Aug 19 18:30 Calm   Clear   108 62     23%   111 29.64        
Aug 19 17:15 SE 3   Clear   108 61     22%   110 29.65        
Aug 19 16:31 SSE 3   Clear   109 62     22%   112 29.66        
Aug 19 15:32 SE 4   Clear   109 60     21%   111 29.68        
Aug 19 15:15 ESE 1   Clear   108 61     22%   110 29.69        
Aug 19 14:30 SE 4   Clear   107 65     26%   112 29.72        
Aug 19 14:15 ESE 2   Clear   106 66     28%   112 29.72        
Aug 19 14:00 S 1   Clear   106        %     29.73        
Notice The following observation data may not be complete
Aug 19 13:15     Clear            %              
Aug 19 12:45 Calm   Clear   104 62     26%   107 29.77        
Aug 19 12:30 Calm   Clear   103 61     26%   105 29.77        
Aug 19 11:45 Calm   Clear   101 62     28%   103 29.79        
Aug 19 11:30 Calm   Clear   100 61     28%   101 29.8        
Aug 19 10:45 Calm   Clear   98 62     31%   99 29.81        
Aug 19 10:15 Calm   Clear   97 62     32%   98 29.82        
Aug 19 08:16 W 5   Clear   90 61     38%   90 29.81        
Aug 19 06:30 W 5   Clear   88 60     39%   88 29.8        
Aug 19 05:30 WNW 6   Clear   89 59     36%   88 29.78        
Aug 19 04:00 W 8   Clear   91 59     34%   90 29.75        
Aug 19 03:45 W 7   Clear   92 58     32%   91 29.75        
Aug 19 02:00 WNW 5   Clear   94 56     28%   92 29.75        
Aug 19 01:15 WNW 7   Clear   94 56     28%   92 29.75        
Aug 19 00:30 WNW 7   Clear   94 57     29%   93 29.75        
Aug 19 00:00 NNW 9   Clear   95 58     29%   94 29.76        
Aug 18 23:00 W 10   Clear   96 58     28%   95 29.77        
Aug 18 22:31 NW 7   Clear   97 58     28%   96 29.78        
Aug 18 19:01 NW 6   Clear   106 59     22%   107 29.74        
Aug 18 18:31 WNW 8   Clear   108 58     20%   109 29.73        
Notice The following observation data may not be complete
Aug 18 18:01     Clear            %              
Aug 18 17:30 SSE 3   Clear   108 63     24%   112 29.73        
Aug 18 15:30 ESE 4   Clear   109 60     21%   111 29.78        
Aug 18 14:15 Calm   Clear   107 61     23%   109 29.81        
Aug 18 13:00 Calm   Clear   105 65     28%   110 29.85        
Aug 18 12:45 Calm   Clear   103 65     29%   107 29.86        
Aug 18 12:30 Calm   Clear   103 65     29%   107 29.87        
Aug 18 12:15 SSW 1   Clear   102 65     30%   106 29.88        
Aug 18 12:00 Calm   Clear   103 65     30%   108 29.88        
Notice The following observation data may not be complete
Aug 18 09:01     Clear            %              
Aug 18 08:30 W 3   Clear   92 63     39%   93 29.92        
Aug 18 08:15 WNW 5   Clear   91 63     40%   92 29.92        
Aug 18 06:15 WNW 6   Clear   88 63     43%   89 29.89        
Aug 18 05:15 WNW 7   Clear   89 64     44%   91 29.88        
Aug 18 04:15 WNW 8   Clear   89 65     45%   91 29.87        
Aug 18 00:46 WNW 2   Clear   92 66     43%   95 29.88        
Aug 17 22:45 WNW 4   Clear   95 65     38%   98 29.88        
Aug 17 22:16 Calm   Clear   96 65     36%   99 29.88        
Aug 17 21:30 Calm   Clear   97 64     34%   99 29.87        
Aug 17 19:16 Calm   Clear   100 64     31%   103 29.83        
Aug 17 18:46 Calm   Clear   101 64     30%   104 29.82        
Aug 17 18:15 Calm   Clear   101 64     30%   104 29.82        
Aug 17 17:45 S 1   Clear   102 66     31%   106 29.83        
Aug 17 17:30 Calm   Clear   102 68     34%   109 29.83        
Aug 17 16:45 Calm   Clear   103 68     33%   110 29.85        
Aug 17 15:45 Calm   Clear   102 68     34%   109 29.86        
Aug 17 15:30 Calm   Clear   101 67     33%   106 29.86        
Aug 17 14:45 Calm   Clear   101 66     32%   105 29.88        
Aug 17 14:15 SSW 4   Clear   102 68     34%   109 29.89        
Aug 17 13:45 SE 8   Clear   101 69     36%   108 29.9        
Aug 17 13:17 ESE 5   Clear   100 70     38%   108 29.91        
Aug 17 13:00 E 5   Clear   100 71     39%   108 29.91        
Aug 17 12:46 SE 7   Clear   99 70     40%   107 29.92        
Aug 17 12:30 Calm   Clear   98 70     40%   105 29.93        
Aug 17 12:15 Calm   Clear   98 70     41%   106 29.93        
Notice The following observation data may not be complete
Aug 17 12:00     Clear            %              
Aug 17 11:30 ESE 2   Clear   96 70     43%   103 29.95        
Aug 17 11:16 Calm   Clear   96 72     46%   105 29.95        
Aug 17 11:00 Calm   Clear   96 71     44%   103 29.96        
Aug 17 10:45 Calm   Clear   95 72     47%   103 29.97        
Aug 17 10:30 Calm   Clear   95 72     47%   103 29.97        
Aug 17 10:15 Calm   Clear   93 70     47%   99 29.97        
Aug 17 10:00 Calm   Clear   93 71     49%   100 29.97        
Aug 17 09:45 S 1   Clear   93 71     49%   100 29.97        
Aug 17 09:31 Calm   Clear   92 71     50%   98 29.98        
Aug 17 09:15 SE 1   Clear   91 72     54%   99 29.98        
Aug 17 09:00 SSE 1   Clear   91 71     52%   97 29.98        
Aug 17 08:45 Calm   Clear   91 71     53%   98 29.98        
Aug 17 08:30 Calm   Clear   91 71     52%   97 29.98        
Aug 17 08:15 Calm   Clear   90 69     50%   95 29.97        
Notice The following observation data may not be complete
Aug 17 08:00     Clear            %              
Aug 17 07:45 Calm   Clear   89 68     51%   93 29.97        
Aug 17 07:30 Calm   Clear   88 68     51%   91 29.97        
Aug 17 07:15 Calm   Clear   87 68     53%   90 29.96        
Aug 17 07:00 Calm   Clear   87 68     54%   91 29.96        
Aug 17 06:45 Calm   Clear   86 68     55%   89 29.95        
Aug 17 06:30 Calm   Clear   86 68     55%   89 29.95        
Aug 17 06:15 Calm   Clear   86 68     56%   90 29.94        
Aug 17 06:00 Calm   Clear   86 68     56%   90 29.94        
Aug 17 05:45 Calm   Clear   86 68     55%   89 29.93        
Aug 17 05:30 Calm   Clear   86 67     54%   89 29.93        
Aug 17 05:15 Calm   Clear   87 68     54%   91 29.92        
Aug 17 05:00 Calm   Clear   87 68     54%   91 29.92        
Aug 17 04:45 Calm   Clear   87 68     54%   91 29.92        
Aug 17 04:15 Calm   Clear   87 68     53%   90 29.92        
Aug 17 04:00 Calm   Clear   88 70     55%   93 29.91        
Aug 17 03:46 Calm   Clear   88 68     51%   91 29.92        
Aug 17 03:31 Calm   Clear   88 68     51%   91 29.92        
Aug 17 03:15 Calm   Clear   89 68     51%   93 29.92        
Aug 17 03:01 Calm   Clear   89 68     50%   93 29.92        
Aug 17 02:46 Calm   Clear   89 68     50%   93 29.92        
Aug 17 02:30 Calm   Clear   90 68     49%   94 29.92        
Aug 17 02:16 Calm   Clear   90 68     49%   94 29.92        
Aug 17 02:00 Calm   Clear   91 69     48%   96 29.92        
Aug 17 01:46 Calm   Clear   91 69     48%   96 29.92        
Aug 17 01:30 Calm   Clear   91 69     48%   96 29.92        
Aug 17 01:16 Calm   Clear   91 68     47%   95 29.92        
Aug 17 01:00 Calm   Clear   91 69     48%   96 29.92        
Aug 17 00:45 Calm   Clear   92 69     47%   97 29.92        
Aug 17 00:30 Calm   Clear   92 71     51%   99 29.92        
Aug 17 00:15 Calm   Clear   93 72     51%   101 29.92        
Aug 17 00:00 Calm   Clear   93 72     50%   101 29.92        
Aug 16 23:45 Calm   Clear   93 71     49%   100 29.92        
Aug 16 23:30 Calm   Clear   94 71     48%   102 29.91        
Aug 16 23:15 Calm   Clear   94 71     47%   101 29.91        
Aug 16 23:00 Calm   Clear   94 71     47%   101 29.9        
Aug 16 22:45 Calm   Clear   94 70     46%   100 29.91        
Aug 16 22:30 Calm   Clear   95 72     48%   104 29.9        
Aug 16 22:15 ESE 1   Clear   95 72     47%   103 29.9        
Aug 16 22:00 SE 3   Clear   95 71     46%   102 29.89        
Aug 16 21:46 Calm   Clear   96 72     46%   105 29.89        
Aug 16 21:30 Calm   Clear   96 72     46%   105 29.88        
Aug 16 21:00 Calm   Clear   96 71     44%   103 29.88        
Aug 16 20:45 Calm   Clear   96 71     44%   103 29.87        
Aug 16 20:30 Calm   Clear   96 70     43%   103 29.85        
Aug 16 20:15 Calm   Clear   97 70     42%   104 29.85        
Aug 16 20:01 Calm   Clear   99 70     39%   106 29.85        
Aug 16 19:45 Calm   Clear   100 67     35%   105 29.85        
Aug 16 19:30 Calm   Clear   100 67     34%   105 29.85        
Aug 16 19:15 Calm   Clear   100 67     34%   105 29.85        
Aug 16 19:00 Calm   Clear   101 67     33%   106 29.85        
Aug 16 18:45 Calm   Clear   101 67     33%   106 29.85        
Aug 16 18:30 Calm   Clear   101 67     33%   106 29.84        
Aug 16 18:15 Calm   Clear   103 67     32%   109 29.83        
Aug 16 18:00 Calm   Clear   102 67     32%   107 29.84        
Aug 16 17:45 Calm   Clear   102 67     33%   108 29.83        
Aug 16 17:30 Calm   Clear   102 67     33%   108 29.83        
Aug 16 17:15 Calm   Clear   102 67     33%   108 29.83        
Aug 16 17:00 Calm   Clear   101 67     34%   107 29.83        
Aug 16 16:45 Calm   Clear   101 67     34%   107 29.84        
Aug 16 16:30 Calm   Clear   100 67     34%   105 29.84        
Aug 16 16:15 Calm   Clear   100 67     34%   105 29.84        
Aug 16 16:00 SE 2   Clear   101 67     34%   107 29.83        
Aug 16 15:45 SE 1   Clear   101 67     34%   107 29.83        
Aug 16 15:30 SE 5   Clear   100 67     34%   105 29.85        
Aug 16 15:15 SE 1   Clear   100 66     33%   104 29.85        
Aug 16 14:45 E 2   Clear   100 67     34%   105 29.87        
Aug 16 14:30 ESE 3   Clear   99 65     33%   102 29.88        
Aug 16 14:15 E 5   Clear   99 65     33%   102 29.88        
Aug 16 14:00 ESE 2   Clear   100 65     32%   103 29.89        
Aug 16 13:45 Calm   Clear   99 66     35%   104 29.9        
Aug 16 13:30 E 4   Clear   98 67     37%   103 29.9        
Aug 16 13:15 SE 8   Clear   98 69     39%   104 29.9        
Aug 16 13:00 ESE 7   Clear   98 69     40%   105 29.9        
Aug 16 12:46 ESE 2   Clear   96 69     42%   102 29.91        
Aug 16 12:31 ESE 5   Clear   96 71     44%   103 29.92        
Aug 16 12:16 Calm   Clear   96 72     47%   105 29.92        
Aug 16 12:01 SSE 1   Clear   95 72     48%   104 29.93        
Aug 16 11:46 E 6   Clear   95 73     50%   105 29.93        
Aug 16 11:30 SE 5   Clear   94 73     51%   103 29.94        
Aug 16 11:16 ESE 1   Clear   94 74     52%   104 29.94        
Aug 16 11:00 SSE 1   Clear   94 74     52%   104 29.94        
Aug 16 10:46 SE 3   Clear   93 73     53%   102 29.95        
Aug 16 10:31 ESE 6   Clear   93 75     56%   104 29.95        
Aug 16 10:16 SSE 6   Clear   94 72     50%   103 29.95        
Aug 16 10:00 SSE 5   Clear   92 72     52%   100 29.95        
Aug 16 09:45 SE 1   Clear   92 73     54%   101 29.95        
Aug 16 09:30 SE 4   Clear   92 73     55%   101 29.95        
Aug 16 09:15 E 1   Clear   91 74     58%   101 29.95        
Aug 16 09:00 Calm   Clear   90 75     61%   100 29.95        
Aug 16 08:45 W 1   Clear   90 75     61%   100 29.94        
Aug 16 08:30 WNW 1   Clear   90 75     61%   100 29.94        
Aug 16 08:15 Calm   Clear   89 74     62%   98 29.94        
Aug 16 08:00 Calm   Clear   89 75     63%   99 29.94        
Aug 16 07:31 Calm   Clear   88 74     64%   97 29.93        
Aug 16 07:15 Calm   Clear   88 74     63%   97 29.93        
Aug 16 07:00 Calm   Clear   87 74     65%   95 29.92        
Aug 16 06:45 Calm   Clear   86 73     66%   93 29.92        
Aug 16 06:30 Calm   Clear   86 73     66%   93 29.91        
Aug 16 06:16 Calm   Clear   86 73     65%   93 29.91        
Aug 16 06:00 Calm   Clear   87 73     63%   94 29.9        
Aug 16 05:45 Calm   Clear   87 71     60%   93 29.89        
Aug 16 05:30 Calm   Clear   87 70     58%   92 29.89        
Aug 16 05:15 Calm   Clear   87 71     59%   93 29.88        
Aug 16 05:00 Calm   Clear   87 72     62%   94 29.88        
Aug 16 04:45 Calm   Clear   87 72     62%   94 29.86        
Aug 16 04:30 Calm   Clear   87 72     62%   94 29.86        
Aug 16 04:15 Calm   Clear   87 72     62%   94 29.85        
Aug 16 04:00 Calm   Clear   88 73     61%   96 29.85        
Aug 16 03:45 Calm   Clear   88 71     58%   94 29.85        
Aug 16 03:16 Calm   Clear   88 66     49%   91 29.84        
Aug 16 03:01 Calm   Clear   88 66     48%   90 29.84        
Aug 16 02:45 Calm   Clear   89 67     48%   92 29.83        
Aug 16 02:31 Calm   Clear   89 67     48%   92 29.83        
Aug 16 02:15 Calm   Clear   89 66     47%   92 29.83        
Aug 16 02:01 Calm   Clear   89 66     47%   92 29.83        
Aug 16 01:45 Calm   Clear   89 65     46%   91 29.82        
Aug 16 01:15 Calm   Clear   90 66     45%   92 29.81        
Aug 16 01:00 Calm   Clear   91 66     44%   94 29.81        
Aug 16 00:45 Calm   Clear   91 67     45%   94 29.81        
Aug 16 00:30 Calm   Clear   91 66     44%   94 29.81        
Aug 16 00:15 Calm   Clear   91 65     43%   93 29.81        
Aug 16 00:00 Calm   Clear   91 65     43%   93 29.81        
Aug 15 23:45 W 2   Clear   92 66     42%   95 29.81        
Aug 15 23:30 Calm   Clear   93 66     41%   96 29.8        
Aug 15 23:15 W 1   Clear   94 67     41%   98 29.8        
Aug 15 23:00 Calm   Clear   94 67     42%   98 29.8        
Aug 15 22:45 Calm   Clear   95 66     39%   98 29.79        
Aug 15 22:30 Calm   Clear   95 68     42%   100 29.79        
Aug 15 22:15 Calm   Clear   96 71     44%   103 29.78        
Aug 15 22:01 NW 1   Clear   96 67     39%   100 29.78        
Aug 15 21:45 Calm   Clear   96 71     44%   103 29.77        
Aug 15 21:31 Calm   Clear   96 72     47%   105 29.77        
Aug 15 21:15 Calm   Clear   96 71     45%   104 29.76        
Aug 15 21:00 SE 3   Clear   97 70     42%   104 29.75        
Aug 15 20:45 Calm   Clear   97 68     39%   102 29.75        
Aug 15 20:30 Calm   Clear   97 68     39%   102 29.74        
Aug 15 20:16 Calm   Clear   98 69     39%   104 29.73        
Aug 15 20:00 Calm   Clear   98 69     39%   104 29.73        
Aug 15 19:45 Calm   Clear   99 67     36%   104 29.72        
Aug 15 19:30 Calm   Clear   99 66     34%   103 29.72        
Aug 15 19:15 Calm   Clear   100 66     33%   104 29.72        
Aug 15 19:00 SE 2   Clear   100 66     33%   104 29.71        
Aug 15 18:45 Calm   Clear   100 67     34%   105 29.71        
Aug 15 18:30 SE 1   Clear   101 68     35%   107 29.71        
Aug 15 18:00 SE 4   Clear   101 67     34%   107 29.7        
Aug 15 17:45 ESE 1   Clear   101 66     32%   105 29.7        
Aug 15 17:30 Calm   Clear   100 66     33%   104 29.7        
Aug 15 17:15 Calm   Clear   101 64     30%   104 29.7        
Aug 15 17:00 Calm   Clear   101 64     30%   104 29.71        
Aug 15 16:45 Calm   Clear   100 64     31%   103 29.71        
Aug 15 16:30 SE 5   Clear   100 64     31%   103 29.72        
Aug 15 16:15 ESE 3   Clear   100 66     33%   104 29.72        
Aug 15 16:00 SSE 5   Clear   100 67     35%   105 29.73        
Aug 15 15:45 SE 7   Clear   100 69     37%   107 29.73        
Aug 15 15:30 ESE 8   Clear   101 71     39%   111 29.73        
Aug 15 15:15 ESE 9   Clear   100 71     40%   109 29.73        
Aug 15 15:00 S 6   Clear   101 71     39%   111 29.74        
Aug 15 14:45 SE 9   Clear   101 71     39%   111 29.75        
Aug 15 14:30 ESE 9   Clear   101 69     36%   108 29.75        
Aug 15 14:15 ESE 5   Clear   101 68     35%   107 29.76        
Aug 15 14:00 SE 4   Clear   100 68     36%   106 29.77        
Aug 15 13:45 SE 7   Clear   100 68     36%   106 29.78        
Aug 15 13:30 E 3   Clear   99 67     36%   104 29.78        
Aug 15 13:15 SE 5   Clear   99 66     35%   104 29.79        
Aug 15 13:00 SSE 4   Clear   98 66     36%   102 29.79        
May 15 01:10 WNW 8   Clear   72 50     46%   71 29.82        
Notice The following observation data may not be complete
May 14 23:55     Clear            %              
Notice The following observation data may not be complete
May 14 18:56     Clear            %              
May 14 18:10 W 4   Clear   89        %     29.73        
May 14 15:55 Calm   Clear   88 27     11%   84 29.76        
Notice The following observation data may not be complete
May 14 10:39     Clear            %              
May 14 09:56 Calm   Clear   77 47     35%   76 29.86        
May 14 09:24 W 1   Clear   75 46     36%   74 29.86        
Notice The following observation data may not be complete
May 14 07:38     Clear            %              
May 14 00:07 NW 7   Clear   69 48     48%     29.83        
May 13 23:52 NW 4   Clear   69 48     47%     29.83        
Notice The following observation data may not be complete
May 13 21:52     Clear            %              
May 13 19:07 NW 8   Clear   80 44     28%   79 29.78        
Notice The following observation data may not be complete
May 13 15:52     Clear            %              
Notice The following observation data may not be complete
May 13 14:37     Clear            %              
May 13 14:22 W 2   Clear   82 45     27%   80 29.83        
May 13 12:22 Calm   Clear   78 44     30%   77 29.89        
May 13 12:07 NW 3   Clear   78 44     30%   77 29.89        
May 13 09:06 NW 7   Clear   71 47     42%   70 29.9        
May 13 07:06 NW 6   Clear   66 48     52%     29.87        
May 13 05:06 WNW 9   Clear   64 46     51%     29.83        
May 13 02:21 NNW 10   Clear   66 46     49%     29.8        
May 13 01:20 WNW 12   Clear   67 47     48%     29.82        
May 12 20:35 NW 11   Clear   71 45     40%   70 29.78        
May 12 19:05 NW 9   Clear   75 45     34%   74 29.75        
Notice The following observation data may not be complete
May 12 18:20 NNW 10   Clear     45      %     29.75        
May 12 16:35 WNW 7   Clear   82 44     26%   80 29.74        
May 12 14:35 WNW 1   Clear   82 44     26%   80 29.77        
May 12 13:35 W 6   Clear   80 45     29%   79 29.79        
Notice The following observation data may not be complete
May 12 12:50     Clear            %              
May 12 09:49 NW 10   Clear   72 45     38%   71 29.83        
May 12 07:34 NW 6   Clear   66 46     48%     29.81        
May 12 07:04 WNW 10   Clear   64 45     50%     29.8        
May 12 06:49 WNW 7   Clear   64 45     50%     29.79        
May 12 01:18 NW 14   Clear   65 46     50%     29.68        
May 12 00:33 NW 11   Clear   66 47     50%     29.67        
May 12 00:03 NW 11   Clear   66 46     49%     29.68        
May 11 18:02 NW 9   Clear   77 48     36%   76 29.57        
May 11 16:47 WNW 10   Clear   84 46     27%   82 29.57        
May 11 15:47 NNW 9   Clear   85 48     28%   83 29.57        
May 11 10:47 Calm   Clear   81 48     32%   80 29.67        
Jun 12 04:49 WNW 5   Clear   66 46     48%     29.83        
Jun 11 22:31 NNW 12   Clear   69 47     45%     29.79        
Jun 11 21:16 NW 10   Clear   72 47     41%   71 29.75        
Jun 11 19:01 NW 9   Clear   81 47     30%   80 29.69        
Jun 11 17:00 NW 9   Clear   86 43     22%   83 29.66        
Jun 11 16:30 NW 9   Clear   87 45     23%   84 29.67        
Jun 11 16:16 NNW 8   Clear   87 46     24%   84 29.67        
Jun 11 15:16 NW 11   Clear   86 44     23%   83 29.68        
Jun 11 12:45 NW 11   Clear   83 47     28%   81 29.72        
Jun 11 11:30 NW 7   Clear   81 47     31%   80 29.72        
Jun 11 10:30 WNW 9   Clear   79 47     33%   78 29.72        
Jun 11 05:14 WNW 2   Clear   67 47     48%     29.66        
Jun 11 04:59 NW 6   Clear   68 48     48%     29.65        
Jun 11 03:44 WNW 6   Clear   69 48     48%     29.64        
Jun 11 00:13 NW 9   Clear   73 50     44%   72 29.63        
Jun 10 22:13 NNW 13   Clear   75 50     42%   74 29.63        
Jun 10 21:43 NW 11   Clear   77 51     40%   76 29.62        
Jun 10 21:13 NNW 8   Clear   78 50     38%   77 29.62        
Jun 10 19:13 NW 11   Clear   85 52     32%   83 29.6        
Jun 10 18:28 NW 8   Clear   88 51     28%   85 29.59        
Jun 10 17:43 NW 16   Clear   90 47     23%   87 29.59        
Jun 10 16:43 WNW 5   Clear   94 41     16%   90 29.59        
Jun 10 14:43 WNW 2   Clear   94 41     16%   90 29.63        
Jun 10 10:14 W 4   Clear   85 47     27%   83 29.7        
Jun 10 09:12 WNW 7   Clear   83 47     28%   81 29.7        
Jun 09 21:56 NW 8   Clear   82 52     36%   81 29.67        
Jun 09 17:11 NW 2   Clear   99 51     20%   96 29.62        
Jun 09 14:25 Calm   Clear   99 40     13%   94 29.68        
Jun 09 13:55 WNW 4   Clear   99 40     13%   94 29.68        
Jun 09 07:39 W 2   Clear   79 50     37%   78 29.75        
Jun 09 02:54 WNW 9   Clear   80 42     26%   79 29.73        
Jun 09 00:39 NW 3   Clear   83 32     16%   80 29.73        
Jun 08 15:23 W 5   Clear   101 41     13%   96 29.72        
Jun 08 14:38 Calm   Clear   99 45     16%   95 29.74        
Jun 08 13:23 NW 1   Clear   95 45     18%   91 29.78        
Jun 08 12:07 Calm   Clear   91 51     26%   88 29.83        
Jun 08 08:07 Calm   Clear   77 55     47%   77 29.85        
Jun 08 07:52 Calm   Clear   76 55     48%   76 29.84        
Jun 08 06:52 Calm   Clear   74 56     54%   74 29.81        
Jun 08 05:36 WNW 2   Clear   73 55     53%   72 29.79        
Jun 08 03:51 W 10   Clear   75 55     49%   75 29.77        
Jun 08 02:36 WNW 9   Clear   77 54     45%   77 29.76        
Jun 07 23:51 WNW 7   Clear   82 54     38%   81 29.75        
Jun 07 22:51 WNW 6   Clear   84 56     38%   83 29.75        
Jun 07 20:06 Calm   Clear   95 43     17%   91 29.7        
Jun 07 15:50 SE 3   Clear   97 42     15%   93 29.73        
Jun 07 12:20 Calm   Clear   91 49     24%   88 29.81        
Jun 07 12:05 ESE 1   Clear   91 50     25%   88 29.82        
Jun 07 09:19 Calm   Clear   83 58     42%   83 29.83        
Notice The following observation data may not be complete
Jun 07 09:04 Calm   Clear     58      %     29.83        
Jun 06 07:32 Calm   Clear   81 55     41%   81 29.8        
Jun 06 07:17 Calm   Clear   81 55     41%   81 29.8        
Jun 06 07:02 Calm   Clear   80 55     42%   80 29.79        
Jun 05 23:46 Calm   Clear   87 55     34%   85 29.73        
Jun 05 22:46 Calm   Clear   90 53     29%   88 29.72        
Jun 05 20:46 Calm   Clear   97 54     24%   95 29.67        
Jun 05 20:31 Calm   Clear   98 55     24%   96 29.66        
Jun 05 15:46 S 7   Clear   102 46     15%   98 29.66        
Jun 05 15:01 Calm   Clear   103 46     15%   99 29.67        
Jun 05 14:46 SW 5   Clear   103 46     15%   99 29.67